Time,TemperatureF,DewpointF,PressureIn,WindDirection,WindDirectionDegrees,WindSpeedMPH,WindSpeedGustMPH,Humidity,HourlyPrecipIn,Conditions,Clouds,dailyrainin,SoftwareType,DateUTC
2013-04-13 13:30:00,44.7,36.2,28.72,SSE,156,2.0,9.0,72,0.00,CLR,,0.00,WeatherDisplay:10.37,2013-04-13 18:30:00,
2013-04-13 13:45:00,45.9,37.3,28.72,SSE,159,6.0,8.0,72,0.00,CLR,,0.00,WeatherDisplay:10.37,2013-04-13 18:45:00,
2013-04-13 14:00:00,45.7,35.7,28.71,SSE,167,5.0,9.0,68,0.00,CLR,,0.00,WeatherDisplay:10.37,2013-04-13 19:00:00,
2013-04-13 14:15:00,46.4,35.7,28.71,South,180,2.0,8.0,66,0.00,CLR,,0.00,WeatherDisplay:10.37,2013-04-13 19:15:00,
2013-04-13 14:30:00,46.9,37.3,28.70,SE,144,2.0,8.0,69,0.00,CLR,,0.00,WeatherDisplay:10.37,2013-04-13 19:30:00,
2013-04-13 14:45:00,46.4,37.5,28.68,ESE,122,5.0,8.0,71,0.00,CLR,,0.00,WeatherDisplay:10.37,2013-04-13 19:45:00,
2013-04-13 15:00:00,46.4,37.9,28.66,ESE,114,5.0,8.0,72,0.00,CLR,,0.00,WeatherDisplay:10.37,2013-04-13 20:00:00,
2013-04-13 15:15:00,46.6,37.0,28.65,SE,132,5.0,10.0,69,0.00,CLR,,0.00,WeatherDisplay:10.37,2013-04-13 20:15:00,
2013-04-13 15:30:00,47.0,37.7,28.65,ESE,103,7.0,11.0,70,0.00,CLR,,0.00,WeatherDisplay:10.37,2013-04-13 20:30:00,
2013-04-13 15:45:00,46.4,37.9,28.64,East,96,5.0,11.0,72,0.00,CLR,,0.00,WeatherDisplay:10.37,2013-04-13 20:45:00,
2013-04-13 16:00:00,46.0,37.5,28.63,East,100,9.0,13.0,72,0.00,CLR,,0.00,WeatherDisplay:10.37,2013-04-13 21:00:00,
2013-04-13 16:15:00,45.5,37.3,28.63,East,96,8.0,15.0,73,0.00,CLR,,0.00,WeatherDisplay:10.37,2013-04-13 21:15:00,
2013-04-13 16:30:00,45.5,38.4,28.62,East,90,8.0,12.0,76,0.00,CLR,,0.00,WeatherDisplay:10.37,2013-04-13 21:30:00,
2013-04-13 16:45:00,44.8,39.6,28.61,East,88,9.0,13.0,82,0.00,CLR,,0.00,WeatherDisplay:10.37,2013-04-13 21:45:00,
2013-04-13 17:00:00,45.0,40.1,28.61,East,92,7.0,14.0,83,0.00,CLR,,0.00,WeatherDisplay:10.37,2013-04-13 22:00:00,
2013-04-13 17:15:00,46.0,38.2,28.61,SE,125,8.0,14.0,74,0.00,CLR,,0.00,WeatherDisplay:10.37,2013-04-13 22:15:00,
2013-04-13 17:30:00,46.2,38.0,28.61,SE,129,8.0,14.0,73,0.00,CLR,,0.00,WeatherDisplay:10.37,2013-04-13 22:30:00,
2013-04-13 17:45:00,45.9,37.3,28.60,ESE,118,9.0,15.0,72,0.00,CLR,,0.00,WeatherDisplay:10.37,2013-04-13 22:45:00,
2013-04-13 18:00:00,45.6,37.1,28.60,ESE,123,7.0,14.0,72,0.00,CLR,,0.00,WeatherDisplay:10.37,2013-04-13 23:00:00,
2013-04-13 18:15:00,45.3,36.8,28.60,ESE,104,8.0,11.0,72,0.00,CLR,,0.00,WeatherDisplay:10.37,2013-04-13 23:15:00,
2013-04-13 18:30:00,45.1,37.0,28.60,ESE,103,7.0,11.0,73,0.00,CLR,,0.00,WeatherDisplay:10.37,2013-04-13 23:30:00,
2013-04-13 18:45:00,45.1,36.6,28.60,East,96,7.0,12.0,72,0.00,CLR,,0.00,WeatherDisplay:10.37,2013-04-13 23:45:00,
2013-04-13 19:00:00,44.8,36.3,28.59,ESE,110,6.0,11.0,72,0.00,CLR,,0.00,WeatherDisplay:10.37,2013-04-14 00:00:00,
2013-04-13 19:15:00,44.8,36.7,28.59,ESE,104,6.0,13.0,73,0.00,CLR,,0.00,WeatherDisplay:10.37,2013-04-14 00:15:00,
2013-04-13 19:30:00,44.8,36.7,28.58,ESE,104,8.0,13.0,73,0.00,CLR,,0.00,WeatherDisplay:10.37,2013-04-14 00:30:00,
2013-04-13 19:45:00,45.1,36.6,28.58,ESE,120,8.0,15.0,72,0.00,CLR,,0.00,WeatherDisplay:10.37,2013-04-14 00:45:00,
2013-04-13 20:00:00,45.1,36.6,28.58,ESE,118,7.0,16.0,72,0.00,CLR,,0.00,WeatherDisplay:10.37,2013-04-14 01:00:00,
2013-04-13 20:15:00,45.0,36.5,28.58,ESE,111,7.0,16.0,72,0.00,CLR,,0.00,WeatherDisplay:10.37,2013-04-14 01:15:00,
2013-04-13 20:30:00,44.8,36.7,28.57,ESE,110,9.0,14.0,73,0.00,CLR,,0.00,WeatherDisplay:10.37,2013-04-14 01:30:00,
2013-04-13 20:45:00,44.6,36.5,28.57,ESE,111,10.0,17.0,73,0.00,CLR,,0.00,WeatherDisplay:10.37,2013-04-14 01:45:00,
2013-04-13 21:00:00,44.5,36.7,28.57,ESE,110,10.0,17.0,74,0.00,CLR,,0.00,WeatherDisplay:10.37,2013-04-14 02:00:00,
2013-04-13 21:15:00,44.8,37.0,28.56,ESE,122,12.0,20.0,74,0.00,CLR,,0.00,WeatherDisplay:10.37,2013-04-14 02:15:00,
2013-04-13 21:30:00,44.6,36.8,28.56,SE,126,12.0,18.0,74,0.00,CLR,,0.00,WeatherDisplay:10.37,2013-04-14 02:30:00,
2013-04-13 21:45:00,44.7,36.9,28.56,ESE,118,10.0,20.0,74,0.00,CLR,,0.00,WeatherDisplay:10.37,2013-04-14 02:45:00,
2013-04-13 22:00:00,44.5,37.1,28.56,ESE,115,9.0,21.0,75,0.00,CLR,,0.00,WeatherDisplay:10.37,2013-04-14 03:00:00,
2013-04-13 22:15:00,44.2,37.2,28.56,ESE,102,12.0,20.0,76,0.00,CLR,,0.00,WeatherDisplay:10.37,2013-04-14 03:15:00,
2013-04-13 22:30:00,44.2,37.1,28.56,ESE,106,8.0,22.0,76,0.00,CLR,,0.00,WeatherDisplay:10.37,2013-04-14 03:30:00,
2013-04-13 22:45:00,44.1,37.0,28.55,ESE,121,10.0,20.0,76,0.00,CLR,,0.00,WeatherDisplay:10.37,2013-04-14 03:45:00,
2013-04-13 23:15:00,44.0,37.2,28.54,ESE,122,9.0,18.0,77,0.00,CLR,,0.00,WeatherDisplay:10.37,2013-04-14 04:15:00,
2013-04-13 23:30:00,43.9,37.1,28.54,ESE,115,8.0,17.0,77,0.00,CLR,,0.00,WeatherDisplay:10.37,2013-04-14 04:30:00,
2013-04-13 23:45:00,43.9,37.5,28.53,SE,131,6.0,17.0,78,0.00,CLR,,0.00,WeatherDisplay:10.37,2013-04-14 04:45:00,